TimeEST,TemperatureF,Dew PointF,Humidity,Sea Level PressureIn,VisibilityMPH,Wind Direction,Wind SpeedMPH,Gust SpeedMPH,PrecipitationIn,Events,Conditions,WindDirDegrees,DateUTC
12:54 AM,42.1,37.9,85,30.30,-9999.0,Calm,Calm,-,N/A,,Mostly Cloudy,0,2012-11-16 05:54:00
1:54 AM,43.0,37.9,82,30.31,-9999.0,Calm,Calm,-,N/A,,Overcast,0,2012-11-16 06:54:00
2:54 AM,43.0,37.0,80,30.31,-9999.0,Calm,Calm,-,N/A,,Overcast,0,2012-11-16 07:54:00
3:54 AM,42.1,37.0,82,30.31,-9999.0,Calm,Calm,-,N/A,,Overcast,0,2012-11-16 08:54:00
4:54 AM,41.0,37.0,86,30.32,-9999.0,Calm,Calm,-,N/A,,Mostly Cloudy,0,2012-11-16 09:54:00
5:54 AM,39.0,37.9,96,30.32,-9999.0,Calm,Calm,-,N/A,,Scattered Clouds,0,2012-11-16 10:54:00
6:54 AM,37.0,37.0,100,30.33,-9999.0,Calm,Calm,-,N/A,,Clear,0,2012-11-16 11:54:00
7:54 AM,39.9,37.9,93,30.35,-9999.0,Calm,Calm,-,N/A,,Clear,0,2012-11-16 12:54:00
8:54 AM,43.0,37.0,80,30.36,-9999.0,Variable,3.5,-,N/A,,Overcast,0,2012-11-16 13:54:00
9:54 AM,46.9,33.1,59,30.37,-9999.0,NE,6.9,-,N/A,,Clear,50,2012-11-16 14:54:00
10:54 AM,48.9,33.1,54,30.36,-9999.0,North,6.9,-,N/A,,Partly Cloudy,10,2012-11-16 15:54:00
11:54 AM,51.1,33.1,50,30.34,-9999.0,WNW,8.1,-,N/A,,Clear,300,2012-11-16 16:54:00
12:54 PM,52.0,32.0,47,30.33,-9999.0,Variable,6.9,-,N/A,,Clear,0,2012-11-16 17:54:00
1:54 PM,53.1,28.9,40,30.32,-9999.0,North,4.6,-,N/A,,Clear,350,2012-11-16 18:54:00
2:54 PM,53.1,28.9,40,30.33,-9999.0,North,6.9,-,N/A,,Clear,360,2012-11-16 19:54:00
3:54 PM,53.1,30.0,41,30.34,-9999.0,Calm,Calm,-,N/A,,Clear,0,2012-11-16 20:54:00
4:54 PM,46.9,34.0,61,30.36,-9999.0,Calm,Calm,-,N/A,,Clear,0,2012-11-16 21:54:00
5:54 PM,42.1,34.0,73,30.38,10.0,Calm,Calm,-,N/A,,Clear,0,2012-11-16 22:54:00
6:54 PM,37.9,34.0,86,30.38,10.0,Calm,Calm,-,N/A,,Clear,0,2012-11-16 23:54:00
7:54 PM,36.0,33.1,89,30.40,10.0,Calm,Calm,-,N/A,,Clear,0,2012-11-17 00:54:00
8:54 PM,34.0,32.0,92,30.42,10.0,Calm,Calm,-,N/A,,Clear,0,2012-11-17 01:54:00
9:54 PM,33.1,32.0,96,30.44,10.0,Calm,Calm,-,N/A,,Clear,0,2012-11-17 02:54:00
10:54 PM,32.0,32.0,100,30.44,10.0,Calm,Calm,-,N/A,,Clear,0,2012-11-17 03:54:00
11:54 PM,30.9,30.9,100,30.45,8.0,Calm,Calm,-,N/A,,Clear,0,2012-11-17 04:54:00